Moose, WY

10:48 PM MDT on August 25, 2016 (GMT -0600)
Jackson Hole

Weather History for KJAC - April, 2014

Change the Weather History Date:

Wednesday, April 2, 2014

  Actual Average Record
Temperature  
Mean Temperature 27 °F -  
Max Temperature 33 °F 44 °F 61 °F (1990)
Min Temperature 17 °F 18 °F -5 °F (1975)
Degree Days  
Heating Degree Days 38    
Moisture  
Dew Point 21 °F    
Average Humidity 77    
Maximum Humidity 93    
Minimum Humidity 48    
Precipitation  
Precipitation 0.01 in - - ()
Sea Level Pressure  
Sea Level Pressure 29.76 in    
Wind  
Wind Speed 8 mph (South)    
Max Wind Speed 16 mph    
Max Gust Speed -    
Visibility 10 miles    
Events Snow    
Averages and records for this station are not official NWS values.
T = Trace of Precipitation, MM = Missing Value Source: NWS Daily Summary

Daily Weather History Graph

Daily Weather History Graph

Search for Another Location

Airport or City:

Trip Planner

Search our weather history database for the weather conditions in past years. The results will help you decide how hot, cold, wet, or windy it might be!

Date:

Astronomy

Apr. 02, 2014 Rise Set
Actual Time 7:02 AM MDT 7:50 PM MDT
Civil Twilight 6:33 AM MDT 8:20 PM MDT
Nautical Twilight 5:59 AM MDT 8:54 PM MDT
Astronomical Twilight 5:23 AM MDT 9:30 PM MDT
Moon 8:44 AM MDT (4/2) 11:23 PM MDT (4/2)
Length of Visible Light 13h 46m
Length of Day
12h 48m
Waxing Crescent, 10% of the Moon is Illuminated
Apr 2
Waxing Crescent
Apr 7
First Quarter
Apr 15
Full
Apr 22
Last Quarter
Apr 29
New

Hourly Weather History & Observations

Time (MDT) Temp. Windchill Dew Point Humidity Pressure Visibility Wind Dir Wind Speed Gust Speed Precip Events Conditions
12:15 AM 28.4 °F 18.0 °F 26.6 °F 93% 29.70 in 10.0 mi South 12.7 mph - N/A   Overcast
12:35 AM 28.4 °F 20.4 °F 26.6 °F 93% 29.71 in 10.0 mi SSW 8.1 mph - N/A   Overcast
12:55 AM 28.4 °F 21.2 °F 26.6 °F 93% 29.70 in 10.0 mi SW 6.9 mph - N/A   Overcast
1:15 AM 28.4 °F 21.2 °F 26.6 °F 93% 29.71 in 10.0 mi SSW 6.9 mph - N/A   Overcast
1:35 AM 28.4 °F 21.2 °F 24.8 °F 86% 29.71 in 10.0 mi SW 6.9 mph - N/A   Overcast
1:55 AM 28.4 °F 24.6 °F 24.8 °F 86% 29.71 in 10.0 mi SSW 3.5 mph - N/A   Mostly Cloudy
2:15 AM 28.4 °F 22.2 °F 24.8 °F 86% 29.70 in - South 5.8 mph - 0.01 in   Unknown
2:35 AM 28.4 °F 21.2 °F 23.0 °F 80% 29.71 in 10.0 mi South 6.9 mph - 0.01 in   Overcast
2:55 AM 28.4 °F 19.1 °F 21.2 °F 74% 29.71 in 10.0 mi SSW 10.4 mph - 0.01 in   Overcast
3:15 AM 28.4 °F 18.5 °F 21.2 °F 74% 29.71 in 10.0 mi SSW 11.5 mph - N/A   Overcast
3:35 AM 26.6 °F 17.5 °F 19.4 °F 74% 29.71 in 10.0 mi SSW 9.2 mph - N/A   Mostly Cloudy
3:55 AM 26.6 °F 18.2 °F 19.4 °F 74% 29.70 in 10.0 mi SSW 8.1 mph - N/A   Mostly Cloudy
4:15 AM 26.6 °F 21.2 °F 21.2 °F 80% 29.70 in 10.0 mi SSE 4.6 mph - N/A   Overcast
4:35 AM 26.6 °F 21.2 °F 19.4 °F 74% 29.70 in 10.0 mi South 4.6 mph - N/A   Overcast
4:55 AM 24.8 °F 15.3 °F 19.4 °F 80% 29.70 in 10.0 mi South 9.2 mph - N/A   Overcast
5:15 AM 24.8 °F 19.1 °F 19.4 °F 80% 29.70 in 10.0 mi South 4.6 mph - N/A   Overcast
6:51 AM 23.0 °F 13.9 °F 17.6 °F 80% 29.71 in 10.0 mi South 8.1 mph - N/A   Scattered Clouds
6:55 AM 21.2 °F 10.9 °F 17.6 °F 86% 29.71 in 10.0 mi SSW 9.2 mph - N/A   Partly Cloudy
7:51 AM 24.8 °F 16.1 °F 19.4 °F 80% 29.72 in 10.0 mi South 8.1 mph - N/A   Mostly Cloudy
8:51 AM 23.0 °F 13.9 °F 19.4 °F 86% 29.73 in 10.0 mi SE 8.1 mph - N/A   Mostly Cloudy
9:51 AM 28.4 °F 20.4 °F 19.4 °F 69% 29.74 in 10.0 mi SE 8.1 mph - N/A   Overcast
10:51 AM 30.2 °F 21.3 °F 17.6 °F 60% 29.74 in 10.0 mi SSE 10.4 mph - N/A   Mostly Cloudy
11:53 AM 30.2 °F 22.6 °F 17.6 °F 60% 29.74 in 10.0 mi SSE 8.1 mph - N/A   Mostly Cloudy
12:56 PM 33.8 °F 27.0 °F 15.8 °F 48% 29.74 in 10.0 mi ESE 8.1 mph - N/A   Mostly Cloudy
1:37 PM 30.2 °F 18.9 °F 24.8 °F 80% 29.75 in 2.0 mi SW 16.1 mph - N/A Snow Light Snow
1:53 PM 30.2 °F 23.4 °F 24.8 °F 80% 29.75 in 7.0 mi South 6.9 mph - N/A Snow Snow Showers
2:51 PM 30.2 °F 20.2 °F 24.8 °F 80% 29.75 in 7.0 mi SSE 12.7 mph - N/A   Mostly Cloudy
3:53 PM 33.8 °F 27.7 °F 19.4 °F 56% 29.76 in 8.0 mi SSE 6.9 mph - N/A   Scattered Clouds
4:55 PM 33.8 °F 29.6 °F 19.4 °F 56% 29.77 in 10.0 mi SSW 4.6 mph - N/A   Mostly Cloudy
5:54 PM 33.8 °F 30.8 °F 17.6 °F 52% 29.78 in 10.0 mi WSW 3.5 mph - N/A   Scattered Clouds
6:54 PM 33.8 °F - 19.4 °F 56% 29.79 in 10.0 mi Calm Calm - N/A   Scattered Clouds
7:52 PM 30.2 °F 22.6 °F 19.4 °F 64% 29.81 in 10.0 mi West 8.1 mph - N/A   Partly Cloudy
8:55 PM 28.4 °F - 21.2 °F 74% 29.84 in - Calm Calm - N/A   Clear
9:15 PM 24.8 °F - 19.4 °F 80% 29.85 in - Calm Calm - N/A   Clear
9:35 PM 24.8 °F 17.9 °F 19.4 °F 80% 29.86 in 10.0 mi North 5.8 mph - N/A   Clear
9:55 PM 23.0 °F 17.0 °F 19.4 °F 86% 29.86 in 10.0 mi NNE 4.6 mph - N/A   Clear
10:15 PM 21.2 °F 14.9 °F 17.6 °F 86% 29.86 in 10.0 mi NE 4.6 mph - N/A   Clear
10:35 PM 24.8 °F 20.5 °F 19.4 °F 80% 29.87 in 10.0 mi NNE 3.5 mph - N/A   Clear
10:55 PM 24.8 °F 19.1 °F 19.4 °F 80% 29.88 in - NNE 4.6 mph - N/A   Clear
11:15 PM 24.8 °F 16.9 °F 19.4 °F 80% 29.88 in 10.0 mi North 6.9 mph - N/A   Clear
11:35 PM 21.2 °F 13.6 °F 17.6 °F 86% 29.88 in 10.0 mi NNE 5.8 mph - N/A   Clear
11:55 PM 17.6 °F 9.3 °F 15.8 °F 93% 29.89 in 10.0 mi NNE 5.8 mph - N/A   Clear